Overview Statistics Trail Chart Weather Telemetry Raw packets
 

This is the latest recevied weather packets stored in our database for station/object VE1DX. If no packets are shown the sender has not sent any weather packets the latest 10 day(s).

<< 81 82 83 84 85 86 87 >>
Time Temp. Humidity Pressure Rain* Wind** Luminosity Snow
1788044717 18.89° C 80% 1017.8 hPa 0 mm - - -
1788044417 18.89° C 79% 1017.8 hPa 0 mm - - -
1788044117 19.44° C 78% 1017.8 hPa 0 mm - - -
1788043817 20° C 79% 1017.7 hPa 0 mm - - -
1788043517 20° C 78% 1017.8 hPa 0 mm - - -
1788043217 20.56° C 73% 1017.7 hPa 0 mm - - -
1788042917 20.56° C 70% 1017.7 hPa 0 mm - - -
1788042617 21.11° C 72% 1017.6 hPa 0 mm - - -
1788042317 21.11° C 72% 1017.5 hPa 0 mm - - -
1788042017 21.11° C 68% 1017.5 hPa 0 mm - - -
1788041717 21.67° C 66% 1017.4 hPa 0 mm - - -
1788041417 21.67° C 66% 1017.4 hPa 0 mm - - -
1788041117 21.67° C 66% 1017.4 hPa 0 mm - - -
1788040817 22.22° C 67% 1017.4 hPa 0 mm - - -
1788040517 22.22° C 64% 1017.5 hPa 0 mm - - -
1788040217 22.22° C 66% 1017.4 hPa 0 mm - - -
1788039917 22.22° C 63% 1017.5 hPa 0 mm - - -
1788039617 22.78° C 62% 1017.4 hPa 0 mm - - -
1788039317 22.78° C 62% 1017.3 hPa 0 mm - - -
1788039017 22.78° C 60% 1017.4 hPa 0 mm - - -
1788038717 23.33° C 63% 1017.3 hPa 0 mm - - -
1788038417 23.33° C 58% 1017.3 hPa 0 mm - - -
1788038117 23.33° C 57% 1017.3 hPa 0 mm - - -
1788037817 23.33° C 56% 1017.1 hPa 0 mm - - -
1788037517 23.89° C 60% 1017 hPa 0 mm - - -

* Rain latest hour (hover to see other rain measurements)
** Current wind speed in m/s (hover to see current wind gust speed)